Time,TemperatureF,DewpointF,PressureIn,WindDirection,WindDirectionDegrees,WindSpeedMPH,WindSpeedGustMPH,Humidity,HourlyPrecipIn,Conditions,Clouds,dailyrainin,SoftwareType,DateUTC
2013-02-08 00:02:00,32.5,27.0,30.23,NE,38,1.0,3.0,80,0.00,,,0.00,Wunderground v.1.15,2013-02-08 06:02:00,
2013-02-08 00:07:00,32.4,26.9,30.23,NNE,24,3.0,3.0,80,0.00,,,0.00,Wunderground v.1.15,2013-02-08 06:07:00,
2013-02-08 00:14:00,32.3,26.8,30.23,North,11,1.0,3.0,80,0.00,,,0.00,Wunderground v.1.15,2013-02-08 06:14:00,
2013-02-08 00:20:00,32.3,26.8,30.23,NNE,32,1.0,2.0,80,0.00,,,0.00,Wunderground v.1.15,2013-02-08 06:20:00,
2013-02-08 00:26:00,32.2,26.7,30.23,NNE,32,4.0,5.0,80,0.00,,,0.00,Wunderground v.1.15,2013-02-08 06:26:00,
2013-02-08 00:31:00,32.1,26.6,30.23,NE,40,1.0,3.0,80,0.00,,,0.00,Wunderground v.1.15,2013-02-08 06:31:00,
2013-02-08 00:37:00,32.2,26.7,30.24,NE,40,0.0,3.0,80,0.00,,,0.00,Wunderground v.1.15,2013-02-08 06:37:00,
2013-02-08 00:43:00,32.3,27.1,30.24,NE,40,0.0,1.0,81,0.00,,,0.00,Wunderground v.1.15,2013-02-08 06:43:00,
2013-02-08 00:48:00,32.4,26.9,30.24,NNE,24,2.0,4.0,80,0.00,,,0.00,Wunderground v.1.15,2013-02-08 06:48:00,
2013-02-08 00:54:00,32.3,26.8,30.24,NE,49,1.0,3.0,80,0.00,,,0.00,Wunderground v.1.15,2013-02-08 06:54:00,
2013-02-08 01:00:00,32.1,26.6,30.24,NNE,24,3.0,3.0,80,0.00,,,0.00,Wunderground v.1.15,2013-02-08 07:00:00,
2013-02-08 01:06:00,32.0,26.5,30.24,ESE,111,2.0,6.0,80,0.00,,,0.00,Wunderground v.1.15,2013-02-08 07:06:00,
2013-02-08 01:11:00,32.0,26.5,30.25,North,9,2.0,2.0,80,0.00,,,0.00,Wunderground v.1.15,2013-02-08 07:11:00,
2013-02-08 01:18:00,32.0,26.5,30.25,NNW,348,1.0,3.0,80,0.00,,,0.00,Wunderground v.1.15,2013-02-08 07:18:00,
2013-02-08 01:24:00,32.1,26.6,30.25,SW,215,1.0,3.0,80,0.00,,,0.00,Wunderground v.1.15,2013-02-08 07:24:00,
2013-02-08 01:30:00,32.1,26.6,30.25,NNE,16,2.0,2.0,80,0.00,,,0.00,Wunderground v.1.15,2013-02-08 07:30:00,
2013-02-08 01:35:00,32.1,26.6,30.25,North,355,2.0,3.0,80,0.00,,,0.00,Wunderground v.1.15,2013-02-08 07:35:00,
2013-02-08 01:41:00,32.1,26.6,30.25,NW,304,0.0,1.0,80,0.00,,,0.00,Wunderground v.1.15,2013-02-08 07:41:00,
2013-02-08 01:47:00,32.1,26.6,30.26,WNW,289,0.0,2.0,80,0.00,,,0.00,Wunderground v.1.15,2013-02-08 07:47:00,
2013-02-08 01:52:00,32.1,26.6,30.26,West,281,1.0,3.0,80,0.00,,,0.00,Wunderground v.1.15,2013-02-08 07:52:00,
2013-02-08 01:58:00,32.0,26.5,30.26,NNE,30,3.0,3.0,80,0.00,,,0.00,Wunderground v.1.15,2013-02-08 07:58:00,
2013-02-08 02:03:00,31.9,26.4,30.26,North,5,1.0,4.0,80,0.00,,,0.00,Wunderground v.1.15,2013-02-08 08:03:00,
2013-02-08 02:08:00,31.9,26.4,30.26,NNE,17,1.0,4.0,80,0.00,,,0.00,Wunderground v.1.15,2013-02-08 08:08:00,
2013-02-08 02:13:00,31.9,26.4,30.26,North,355,3.0,4.0,80,0.00,,,0.00,Wunderground v.1.15,2013-02-08 08:13:00,
2013-02-08 02:18:00,32.0,26.8,30.26,North,9,2.0,4.0,81,0.00,,,0.00,Wunderground v.1.15,2013-02-08 08:18:00,
2013-02-08 02:23:00,32.0,26.8,30.26,North,9,2.0,2.0,81,0.00,,,0.00,Wunderground v.1.15,2013-02-08 08:23:00,
2013-02-08 02:28:00,32.0,26.8,30.26,NNE,17,1.0,4.0,81,0.00,,,0.00,Wunderground v.1.15,2013-02-08 08:28:00,
2013-02-08 02:33:00,31.9,26.7,30.27,NE,38,1.0,6.0,81,0.00,,,0.00,Wunderground v.1.15,2013-02-08 08:33:00,
2013-02-08 02:38:00,31.9,26.7,30.27,NE,38,1.0,6.0,81,0.00,,,0.00,Wunderground v.1.15,2013-02-08 08:38:00,
2013-02-08 02:43:00,31.8,26.6,30.27,ESE,108,1.0,3.0,81,0.00,,,0.00,Wunderground v.1.15,2013-02-08 08:43:00,
2013-02-08 02:48:00,31.7,26.5,30.27,SE,146,2.0,4.0,81,0.00,,,0.00,Wunderground v.1.15,2013-02-08 08:48:00,
2013-02-08 02:53:00,31.7,26.5,30.27,NNE,19,1.0,3.0,81,0.00,,,0.00,Wunderground v.1.15,2013-02-08 08:53:00,
2013-02-08 02:58:00,31.7,26.5,30.27,NNE,19,2.0,3.0,81,0.00,,,0.00,Wunderground v.1.15,2013-02-08 08:58:00,
2013-02-08 03:03:00,31.6,26.4,30.27,NNE,21,2.0,5.0,81,0.00,,,0.00,Wunderground v.1.15,2013-02-08 09:03:00,
2013-02-08 03:08:00,31.5,26.3,30.27,NE,34,2.0,5.0,81,0.00,,,0.00,Wunderground v.1.15,2013-02-08 09:08:00,
2013-02-08 03:13:00,31.4,26.2,30.27,NE,34,2.0,2.0,81,0.00,,,0.00,Wunderground v.1.15,2013-02-08 09:13:00,
2013-02-08 03:18:00,31.4,26.2,30.27,NE,34,1.0,3.0,81,0.00,,,0.00,Wunderground v.1.15,2013-02-08 09:18:00,
2013-02-08 03:23:00,31.4,26.2,30.27,NNE,28,1.0,6.0,81,0.00,,,0.00,Wunderground v.1.15,2013-02-08 09:23:00,
2013-02-08 03:28:00,31.2,26.0,30.27,ENE,57,1.0,6.0,81,0.00,,,0.00,Wunderground v.1.15,2013-02-08 09:28:00,
2013-02-08 03:33:00,31.2,26.3,30.28,NNE,33,4.0,5.0,82,0.00,,,0.00,Wunderground v.1.15,2013-02-08 09:33:00,
2013-02-08 03:38:00,31.1,26.2,30.28,SW,218,2.0,7.0,82,0.00,,,0.00,Wunderground v.1.15,2013-02-08 09:38:00,
2013-02-08 03:43:00,31.0,26.1,30.28,NE,42,1.0,4.0,82,0.00,,,0.00,Wunderground v.1.15,2013-02-08 09:43:00,
2013-02-08 03:48:00,31.0,25.9,30.27,NE,37,2.0,4.0,81,0.00,,,0.00,Wunderground v.1.15,2013-02-08 09:48:00,
2013-02-08 03:53:00,30.9,26.1,30.28,NE,34,2.0,5.0,82,0.00,,,0.00,Wunderground v.1.15,2013-02-08 09:53:00,
2013-02-08 03:58:00,30.7,25.9,30.28,NE,36,2.0,6.0,82,0.00,,,0.00,Wunderground v.1.15,2013-02-08 09:58:00,
2013-02-08 04:03:00,30.7,25.9,30.28,NNE,32,1.0,6.0,82,0.00,,,0.00,Wunderground v.1.15,2013-02-08 10:03:00,
2013-02-08 04:08:00,30.6,25.8,30.28,NNE,32,2.0,6.0,82,0.00,,,0.00,Wunderground v.1.15,2013-02-08 10:08:00,
2013-02-08 04:13:00,30.6,25.8,30.29,NNE,32,1.0,3.0,82,0.00,,,0.00,Wunderground v.1.15,2013-02-08 10:13:00,
2013-02-08 04:18:00,30.6,25.8,30.29,NNE,32,1.0,4.0,82,0.00,,,0.00,Wunderground v.1.15,2013-02-08 10:18:00,
2013-02-08 04:23:00,30.6,26.1,30.29,NNE,32,0.0,4.0,83,0.00,,,0.00,Wunderground v.1.15,2013-02-08 10:23:00,
2013-02-08 04:28:00,30.6,26.1,30.29,NNE,32,2.0,4.0,83,0.00,,,0.00,Wunderground v.1.15,2013-02-08 10:28:00,
2013-02-08 04:33:00,30.6,26.1,30.29,NNE,32,1.0,5.0,83,0.00,,,0.00,Wunderground v.1.15,2013-02-08 10:33:00,
2013-02-08 04:38:00,30.7,25.9,30.29,NNE,32,1.0,5.0,82,0.00,,,0.00,Wunderground v.1.15,2013-02-08 10:38:00,
2013-02-08 04:43:00,30.7,26.1,30.29,NNE,32,3.0,3.0,83,0.00,,,0.00,Wunderground v.1.15,2013-02-08 10:43:00,
2013-02-08 04:48:00,30.7,25.9,30.30,NNW,339,0.0,3.0,82,0.00,,,0.00,Wunderground v.1.15,2013-02-08 10:48:00,
2013-02-08 04:53:00,30.6,25.8,30.30,North,360,1.0,4.0,82,0.00,,,0.00,Wunderground v.1.15,2013-02-08 10:53:00,
2013-02-08 04:59:00,30.5,25.7,30.30,North,355,1.0,4.0,82,0.00,,,0.00,Wunderground v.1.15,2013-02-08 10:59:00,
2013-02-08 05:03:00,30.4,25.9,30.31,North,5,2.0,3.0,83,0.00,,,0.00,Wunderground v.1.15,2013-02-08 11:03:00,
2013-02-08 05:08:00,30.4,25.9,30.31,North,5,0.0,3.0,83,0.00,,,0.00,Wunderground v.1.15,2013-02-08 11:08:00,
2013-02-08 05:13:00,30.5,25.7,30.31,North,360,0.0,4.0,82,0.00,,,0.00,Wunderground v.1.15,2013-02-08 11:13:00,
2013-02-08 05:19:00,30.5,26.0,30.31,North,360,1.0,4.0,83,0.00,,,0.00,Wunderground v.1.15,2013-02-08 11:19:00,
2013-02-08 05:24:00,30.6,26.1,30.31,North,360,0.0,1.0,83,0.00,,,0.00,Wunderground v.1.15,2013-02-08 11:24:00,
2013-02-08 05:29:00,30.6,25.8,30.31,North,360,0.0,2.0,82,0.00,,,0.00,Wunderground v.1.15,2013-02-08 11:29:00,
2013-02-08 05:33:00,30.7,25.9,30.31,North,360,0.0,3.0,82,0.00,,,0.00,Wunderground v.1.15,2013-02-08 11:33:00,
2013-02-08 05:38:00,30.6,25.8,30.31,North,360,1.0,3.0,82,0.00,,,0.00,Wunderground v.1.15,2013-02-08 11:38:00,
2013-02-08 05:44:00,30.6,26.1,30.31,North,360,2.0,3.0,83,0.00,,,0.00,Wunderground v.1.15,2013-02-08 11:44:00,
2013-02-08 05:49:00,30.5,26.0,30.31,North,5,1.0,3.0,83,0.00,,,0.00,Wunderground v.1.15,2013-02-08 11:49:00,
2013-02-08 05:54:00,30.6,26.1,30.32,North,5,2.0,2.0,83,0.00,,,0.00,Wunderground v.1.15,2013-02-08 11:54:00,
2013-02-08 05:58:00,30.7,26.1,30.31,North,5,0.0,2.0,83,0.00,,,0.00,Wunderground v.1.15,2013-02-08 11:58:00,
2013-02-08 06:03:00,30.8,26.2,30.31,North,5,0.0,2.0,83,0.00,,,0.00,Wunderground v.1.15,2013-02-08 12:03:00,
2013-02-08 06:08:00,30.8,26.2,30.31,North,5,1.0,2.0,83,0.00,,,0.00,Wunderground v.1.15,2013-02-08 12:08:00,
2013-02-08 06:13:00,30.8,26.2,30.31,North,5,0.0,3.0,83,0.00,,,0.00,Wunderground v.1.15,2013-02-08 12:13:00,
2013-02-08 06:18:00,30.8,26.2,30.31,North,5,2.0,3.0,83,0.00,,,0.00,Wunderground v.1.15,2013-02-08 12:18:00,
2013-02-08 06:23:00,30.8,26.2,30.32,North,5,3.0,3.0,83,0.00,,,0.00,Wunderground v.1.15,2013-02-08 12:23:00,
2013-02-08 06:28:00,30.7,25.9,30.32,NNE,22,2.0,5.0,82,0.00,,,0.00,Wunderground v.1.15,2013-02-08 12:28:00,
2013-02-08 06:34:00,30.5,25.7,30.32,NNE,21,1.0,3.0,82,0.00,,,0.00,Wunderground v.1.15,2013-02-08 12:34:00,
2013-02-08 06:39:00,30.4,25.6,30.32,NNE,21,2.0,5.0,82,0.00,,,0.00,Wunderground v.1.15,2013-02-08 12:39:00,
2013-02-08 06:44:00,30.3,25.8,30.32,NNE,21,0.0,2.0,83,0.00,,,0.00,Wunderground v.1.15,2013-02-08 12:44:00,
2013-02-08 06:49:00,30.1,25.3,30.32,NNE,21,2.0,4.0,82,0.00,,,0.00,Wunderground v.1.15,2013-02-08 12:49:00,
2013-02-08 06:54:00,29.8,25.3,30.32,NNE,21,0.0,3.0,83,0.00,,,0.00,Wunderground v.1.15,2013-02-08 12:54:00,
2013-02-08 06:59:00,29.9,25.7,30.32,NNE,21,1.0,3.0,84,0.00,,,0.00,Wunderground v.1.15,2013-02-08 12:59:00,
2013-02-08 07:04:00,29.9,25.4,30.32,NNE,21,1.0,4.0,83,0.00,,,0.00,Wunderground v.1.15,2013-02-08 13:04:00,
2013-02-08 07:09:00,29.9,25.4,30.32,NNE,21,1.0,4.0,83,0.00,,,0.00,Wunderground v.1.15,2013-02-08 13:09:00,
2013-02-08 07:14:00,29.9,25.1,30.32,NE,45,4.0,7.0,82,0.00,,,0.00,Wunderground v.1.15,2013-02-08 13:14:00,
2013-02-08 07:19:00,29.8,25.0,30.32,NNE,30,4.0,7.0,82,0.00,,,0.00,Wunderground v.1.15,2013-02-08 13:19:00,
2013-02-08 07:24:00,29.7,24.9,30.33,ENE,77,1.0,6.0,82,0.00,,,0.00,Wunderground v.1.15,2013-02-08 13:24:00,
2013-02-08 07:29:00,29.6,25.1,30.33,ENE,77,1.0,6.0,83,0.00,,,0.00,Wunderground v.1.15,2013-02-08 13:29:00,
2013-02-08 07:34:00,29.6,25.1,30.33,NE,51,1.0,3.0,83,0.00,,,0.00,Wunderground v.1.15,2013-02-08 13:34:00,
2013-02-08 07:39:00,29.6,25.1,30.33,NE,51,1.0,3.0,83,0.00,,,0.00,Wunderground v.1.15,2013-02-08 13:39:00,
2013-02-08 07:44:00,29.7,25.2,30.34,NE,51,0.0,2.0,83,0.00,,,0.00,Wunderground v.1.15,2013-02-08 13:44:00,
2013-02-08 07:49:00,29.8,25.3,30.34,NE,51,0.0,3.0,83,0.00,,,0.00,Wunderground v.1.15,2013-02-08 13:49:00,
2013-02-08 07:54:00,30.0,25.2,30.34,NE,51,1.0,2.0,82,0.00,,,0.00,Wunderground v.1.15,2013-02-08 13:54:00,
2013-02-08 07:59:00,30.1,25.6,30.34,NE,51,0.0,2.0,83,0.00,,,0.00,Wunderground v.1.15,2013-02-08 13:59:00,
2013-02-08 08:04:00,30.2,25.4,30.34,NE,51,3.0,3.0,82,0.00,,,0.00,Wunderground v.1.15,2013-02-08 14:04:00,
2013-02-08 08:09:00,30.2,25.4,30.35,NE,51,2.0,4.0,82,0.00,,,0.00,Wunderground v.1.15,2013-02-08 14:09:00,
2013-02-08 08:14:00,29.9,25.1,30.35,ENE,70,2.0,4.0,82,0.00,,,0.00,Wunderground v.1.15,2013-02-08 14:14:00,
2013-02-08 08:19:00,29.8,25.0,30.35,ENE,70,1.0,4.0,82,0.00,,,0.00,Wunderground v.1.15,2013-02-08 14:19:00,
2013-02-08 08:24:00,29.8,25.3,30.35,NE,46,1.0,4.0,83,0.00,,,0.00,Wunderground v.1.15,2013-02-08 14:24:00,
2013-02-08 08:29:00,29.9,25.1,30.35,NE,46,0.0,4.0,82,0.00,,,0.00,Wunderground v.1.15,2013-02-08 14:29:00,
2013-02-08 08:34:00,30.1,25.6,30.36,NE,46,1.0,1.0,83,0.00,,,0.00,Wunderground v.1.15,2013-02-08 14:34:00,
2013-02-08 08:39:00,30.3,25.5,30.36,NE,46,1.0,2.0,82,0.00,,,0.00,Wunderground v.1.15,2013-02-08 14:39:00,
2013-02-08 08:44:00,30.6,25.8,30.36,NE,46,1.0,2.0,82,0.00,,,0.00,Wunderground v.1.15,2013-02-08 14:44:00,
2013-02-08 08:49:00,30.7,25.6,30.36,NE,46,2.0,3.0,81,0.00,,,0.00,Wunderground v.1.15,2013-02-08 14:49:00,
2013-02-08 08:54:00,30.6,25.5,30.36,ENE,76,3.0,5.0,81,0.00,,,0.00,Wunderground v.1.15,2013-02-08 14:54:00,
2013-02-08 08:59:00,30.3,25.5,30.36,ENE,69,3.0,5.0,82,0.00,,,0.00,Wunderground v.1.15,2013-02-08 14:59:00,
2013-02-08 09:04:00,30.4,25.6,30.35,NE,55,4.0,4.0,82,0.00,,,0.00,Wunderground v.1.15,2013-02-08 15:04:00,
2013-02-08 09:09:00,30.3,25.2,30.36,East,101,6.0,6.0,81,0.00,,,0.00,Wunderground v.1.15,2013-02-08 15:09:00,
2013-02-08 09:14:00,30.0,24.9,30.36,ENE,64,0.0,5.0,81,0.00,,,0.00,Wunderground v.1.15,2013-02-08 15:14:00,
2013-02-08 09:19:00,30.1,25.3,30.36,East,88,5.0,5.0,82,0.00,,,0.00,Wunderground v.1.15,2013-02-08 15:19:00,
2013-02-08 09:24:00,30.0,25.2,30.35,ENE,76,1.0,5.0,82,0.00,,,0.00,Wunderground v.1.15,2013-02-08 15:24:00,
2013-02-08 09:29:00,30.3,25.8,30.36,ENE,76,1.0,5.0,83,0.00,,,0.00,Wunderground v.1.15,2013-02-08 15:29:00,
2013-02-08 09:34:00,30.8,25.7,30.35,ESE,117,2.0,7.0,81,0.00,,,0.00,Wunderground v.1.15,2013-02-08 15:34:00,
2013-02-08 09:39:00,30.8,25.7,30.35,ENE,78,5.0,8.0,81,0.00,,,0.00,Wunderground v.1.15,2013-02-08 15:39:00,
2013-02-08 09:44:00,30.8,25.7,30.35,East,81,2.0,5.0,81,0.00,,,0.00,Wunderground v.1.15,2013-02-08 15:44:00,
2013-02-08 09:49:00,31.3,25.8,30.35,ENE,72,2.0,5.0,80,0.00,,,0.00,Wunderground v.1.15,2013-02-08 15:49:00,
2013-02-08 09:54:00,31.5,26.0,30.35,NE,42,2.0,7.0,80,0.00,,,0.00,Wunderground v.1.15,2013-02-08 15:54:00,
2013-02-08 09:59:00,31.5,25.7,30.35,East,80,1.0,7.0,79,0.00,,,0.00,Wunderground v.1.15,2013-02-08 15:59:00,
2013-02-08 10:04:00,31.6,26.1,30.35,NE,51,3.0,7.0,80,0.00,,,0.00,Wunderground v.1.15,2013-02-08 16:04:00,
2013-02-08 10:09:00,32.1,26.3,30.35,NE,34,3.0,7.0,79,0.00,,,0.00,Wunderground v.1.15,2013-02-08 16:09:00,
2013-02-08 10:14:00,33.0,26.6,30.35,SE,132,1.0,7.0,77,0.00,,,0.00,Wunderground v.1.15,2013-02-08 16:14:00,
2013-02-08 10:19:00,33.1,26.7,30.35,ENE,76,2.0,7.0,77,0.00,,,0.00,Wunderground v.1.15,2013-02-08 16:19:00,
2013-02-08 10:24:00,32.7,26.0,30.35,East,90,3.0,7.0,76,0.00,,,0.00,Wunderground v.1.15,2013-02-08 16:24:00,
2013-02-08 10:29:00,32.4,26.3,30.35,SE,137,2.0,7.0,78,0.00,,,0.00,Wunderground v.1.15,2013-02-08 16:29:00,
2013-02-08 10:34:00,32.4,26.3,30.35,SSE,152,1.0,6.0,78,0.00,,,0.00,Wunderground v.1.15,2013-02-08 16:34:00,
2013-02-08 10:39:00,32.5,26.4,30.35,NE,46,3.0,6.0,78,0.00,,,0.00,Wunderground v.1.15,2013-02-08 16:39:00,
2013-02-08 10:44:00,33.0,26.9,30.35,ESE,111,3.0,6.0,78,0.00,,,0.00,Wunderground v.1.15,2013-02-08 16:44:00,
2013-02-08 10:49:00,33.5,26.7,30.35,NE,52,3.0,3.0,76,0.00,,,0.00,Wunderground v.1.15,2013-02-08 16:49:00,
2013-02-08 10:54:00,34.4,27.3,30.35,NE,44,1.0,4.0,75,0.00,,,0.00,Wunderground v.1.15,2013-02-08 16:54:00,
2013-02-08 10:59:00,34.9,27.5,30.35,NE,44,0.0,2.0,74,0.00,,,0.00,Wunderground v.1.15,2013-02-08 16:59:00,
2013-02-08 11:04:00,35.6,27.5,30.35,ENE,63,1.0,3.0,72,0.00,,,0.00,Wunderground v.1.15,2013-02-08 17:04:00,
2013-02-08 11:09:00,35.6,27.5,30.35,SSE,153,2.0,2.0,72,0.00,,,0.00,Wunderground v.1.15,2013-02-08 17:09:00,
2013-02-08 11:14:00,35.2,27.1,30.35,ENE,70,1.0,5.0,72,0.00,,,0.00,Wunderground v.1.15,2013-02-08 17:14:00,
2013-02-08 11:19:00,36.4,28.6,30.34,NE,46,4.0,4.0,73,0.00,,,0.00,Wunderground v.1.15,2013-02-08 17:19:00,
2013-02-08 11:25:00,37.3,28.4,30.34,NE,42,3.0,5.0,70,0.00,,,0.00,Wunderground v.1.15,2013-02-08 17:25:00,
2013-02-08 11:30:00,38.2,28.6,30.35,NE,42,0.0,2.0,68,0.00,,,0.00,Wunderground v.1.15,2013-02-08 17:30:00,
2013-02-08 11:35:00,37.9,27.9,30.35,East,80,5.0,7.0,67,0.00,,,0.00,Wunderground v.1.15,2013-02-08 17:35:00,
2013-02-08 11:40:00,37.1,27.5,30.35,East,88,0.0,2.0,68,0.00,,,0.00,Wunderground v.1.15,2013-02-08 17:40:00,
2013-02-08 11:45:00,37.8,28.2,30.36,ENE,62,0.0,3.0,68,0.00,,,0.00,Wunderground v.1.15,2013-02-08 17:45:00,
2013-02-08 11:50:00,38.5,28.1,30.35,ENE,62,1.0,2.0,66,0.00,,,0.00,Wunderground v.1.15,2013-02-08 17:50:00,
2013-02-08 11:55:00,38.7,27.9,30.36,SSW,205,1.0,4.0,65,0.00,,,0.00,Wunderground v.1.15,2013-02-08 17:55:00,
2013-02-08 12:00:00,38.4,28.0,30.36,ENE,65,2.0,5.0,66,0.00,,,0.00,Wunderground v.1.15,2013-02-08 18:00:00,
2013-02-08 12:05:00,38.4,27.7,30.36,SSE,147,1.0,5.0,65,0.00,,,0.00,Wunderground v.1.15,2013-02-08 18:05:00,
2013-02-08 12:10:00,38.6,27.8,30.36,SSE,153,3.0,5.0,65,0.00,,,0.00,Wunderground v.1.15,2013-02-08 18:10:00,
2013-02-08 12:15:00,38.5,27.4,30.36,NE,53,3.0,5.0,64,0.00,,,0.00,Wunderground v.1.15,2013-02-08 18:15:00,
2013-02-08 12:20:00,38.9,27.8,30.35,NE,51,1.0,2.0,64,0.00,,,0.00,Wunderground v.1.15,2013-02-08 18:20:00,
2013-02-08 12:25:00,39.9,28.7,30.35,SW,225,1.0,3.0,64,0.00,,,0.00,Wunderground v.1.15,2013-02-08 18:25:00,
2013-02-08 12:30:00,40.9,28.9,30.35,WSW,249,0.0,1.0,62,0.00,,,0.00,Wunderground v.1.15,2013-02-08 18:30:00,
2013-02-08 12:35:00,40.9,28.1,30.35,ESE,106,1.0,4.0,60,0.00,,,0.00,Wunderground v.1.15,2013-02-08 18:35:00,
2013-02-08 12:40:00,40.8,28.4,30.36,SSE,159,1.0,2.0,61,0.00,,,0.00,Wunderground v.1.15,2013-02-08 18:40:00,
2013-02-08 12:45:00,42.1,29.2,30.36,SW,221,3.0,3.0,60,0.00,,,0.00,Wunderground v.1.15,2013-02-08 18:45:00,
2013-02-08 12:50:00,42.2,28.9,30.36,WSW,256,2.0,6.0,59,0.00,,,0.00,Wunderground v.1.15,2013-02-08 18:50:00,
2013-02-08 12:55:00,42.0,29.1,30.36,SW,219,1.0,6.0,60,0.00,,,0.00,Wunderground v.1.15,2013-02-08 18:55:00,
2013-02-08 13:00:00,42.5,29.2,30.35,West,275,1.0,2.0,59,0.00,,,0.00,Wunderground v.1.15,2013-02-08 19:00:00,
2013-02-08 13:05:00,43.5,29.3,30.35,NW,308,3.0,3.0,57,0.00,,,0.00,Wunderground v.1.15,2013-02-08 19:05:00,
2013-02-08 13:10:00,44.7,30.0,30.34,NNE,32,1.0,1.0,56,0.00,,,0.00,Wunderground v.1.15,2013-02-08 19:10:00,
2013-02-08 13:15:00,44.6,29.0,30.33,SW,218,3.0,4.0,54,0.00,,,0.00,Wunderground v.1.15,2013-02-08 19:15:00,
2013-02-08 13:20:00,43.7,28.6,30.33,SSE,165,1.0,2.0,55,0.00,,,0.00,Wunderground v.1.15,2013-02-08 19:20:00,
2013-02-08 13:25:00,43.8,29.1,30.33,SSE,165,1.0,2.0,56,0.00,,,0.00,Wunderground v.1.15,2013-02-08 19:25:00,
2013-02-08 13:30:00,43.1,28.5,30.32,ENE,77,1.0,2.0,56,0.00,,,0.00,Wunderground v.1.15,2013-02-08 19:30:00,
2013-02-08 13:35:00,42.7,28.5,30.32,SE,145,4.0,6.0,57,0.00,,,0.00,Wunderground v.1.15,2013-02-08 19:35:00,
2013-02-08 13:40:00,42.6,28.8,30.32,SW,234,1.0,2.0,58,0.00,,,0.00,Wunderground v.1.15,2013-02-08 19:40:00,
2013-02-08 13:45:00,42.9,28.7,30.31,ENE,78,5.0,5.0,57,0.00,,,0.00,Wunderground v.1.15,2013-02-08 19:45:00,
2013-02-08 13:51:00,42.5,28.3,30.31,ENE,69,2.0,5.0,57,0.00,,,0.00,Wunderground v.1.15,2013-02-08 19:51:00,
2013-02-08 13:56:00,42.5,28.8,30.31,South,182,1.0,5.0,58,0.00,,,0.00,Wunderground v.1.15,2013-02-08 19:56:00,
2013-02-08 14:01:00,42.7,28.9,30.30,ESE,116,2.0,2.0,58,0.00,,,0.00,Wunderground v.1.15,2013-02-08 20:01:00,
2013-02-08 14:06:00,42.8,29.0,30.30,ENE,57,2.0,5.0,58,0.00,,,0.00,Wunderground v.1.15,2013-02-08 20:06:00,
2013-02-08 14:11:00,43.0,28.8,30.29,SSE,164,2.0,4.0,57,0.00,,,0.00,Wunderground v.1.15,2013-02-08 20:11:00,
2013-02-08 14:16:00,43.3,29.1,30.29,SSW,199,1.0,4.0,57,0.00,,,0.00,Wunderground v.1.15,2013-02-08 20:16:00,
2013-02-08 14:21:00,43.8,29.1,30.29,SW,220,1.0,2.0,56,0.00,,,0.00,Wunderground v.1.15,2013-02-08 20:21:00,
2013-02-08 14:26:00,44.6,29.9,30.28,South,189,2.0,3.0,56,0.00,,,0.00,Wunderground v.1.15,2013-02-08 20:26:00,
2013-02-08 14:31:00,44.2,29.0,30.28,SE,132,4.0,5.0,55,0.00,,,0.00,Wunderground v.1.15,2013-02-08 20:31:00,
2013-02-08 14:36:00,44.0,29.3,30.28,SSE,168,2.0,5.0,56,0.00,,,0.00,Wunderground v.1.15,2013-02-08 20:36:00,
2013-02-08 14:41:00,44.3,29.1,30.28,East,94,2.0,4.0,55,0.00,,,0.00,Wunderground v.1.15,2013-02-08 20:41:00,
2013-02-08 14:46:00,44.1,29.4,30.27,ESE,115,0.0,7.0,56,0.00,,,0.00,Wunderground v.1.15,2013-02-08 20:46:00,
2013-02-08 14:51:00,44.1,29.4,30.27,ESE,115,4.0,6.0,56,0.00,,,0.00,Wunderground v.1.15,2013-02-08 20:51:00,
2013-02-08 14:56:00,43.6,29.4,30.26,East,98,3.0,7.0,57,0.00,,,0.00,Wunderground v.1.15,2013-02-08 20:56:00,
2013-02-08 15:01:00,43.6,29.4,30.26,ESE,111,4.0,6.0,57,0.00,,,0.00,Wunderground v.1.15,2013-02-08 21:01:00,
2013-02-08 15:06:00,44.0,30.2,30.26,East,98,5.0,6.0,58,0.00,,,0.00,Wunderground v.1.15,2013-02-08 21:06:00,
2013-02-08 15:11:00,44.1,29.8,30.26,ENE,67,5.0,5.0,57,0.00,,,0.00,Wunderground v.1.15,2013-02-08 21:11:00,
2013-02-08 15:16:00,44.3,29.6,30.26,SSE,160,2.0,7.0,56,0.00,,,0.00,Wunderground v.1.15,2013-02-08 21:16:00,
2013-02-08 15:21:00,44.0,29.7,30.26,East,81,3.0,3.0,57,0.00,,,0.00,Wunderground v.1.15,2013-02-08 21:21:00,
2013-02-08 15:26:00,44.1,29.8,30.26,SE,124,1.0,9.0,57,0.00,,,0.00,Wunderground v.1.15,2013-02-08 21:26:00,
2013-02-08 15:31:00,44.5,30.2,30.26,South,172,3.0,7.0,57,0.00,,,0.00,Wunderground v.1.15,2013-02-08 21:31:00,
2013-02-08 15:36:00,44.7,30.0,30.26,South,173,1.0,7.0,56,0.00,,,0.00,Wunderground v.1.15,2013-02-08 21:36:00,
2013-02-08 15:41:00,44.9,30.1,30.26,SSE,155,3.0,7.0,56,0.00,,,0.00,Wunderground v.1.15,2013-02-08 21:41:00,
2013-02-08 15:46:00,45.2,30.4,30.26,East,93,5.0,7.0,56,0.00,,,0.00,Wunderground v.1.15,2013-02-08 21:46:00,
2013-02-08 15:51:00,45.0,30.2,30.26,SSE,161,1.0,4.0,56,0.00,,,0.00,Wunderground v.1.15,2013-02-08 21:51:00,
2013-02-08 15:56:00,45.0,30.7,30.26,South,191,2.0,4.0,57,0.00,,,0.00,Wunderground v.1.15,2013-02-08 21:56:00,
2013-02-08 16:01:00,45.1,30.8,30.26,East,87,2.0,3.0,57,0.00,,,0.00,Wunderground v.1.15,2013-02-08 22:01:00,
2013-02-08 16:06:00,45.1,30.3,30.26,SSE,157,2.0,5.0,56,0.00,,,0.00,Wunderground v.1.15,2013-02-08 22:06:00,
2013-02-08 16:11:00,44.9,30.6,30.26,ESE,120,2.0,5.0,57,0.00,,,0.00,Wunderground v.1.15,2013-02-08 22:11:00,
2013-02-08 16:16:00,44.8,30.9,30.25,SSE,165,3.0,5.0,58,0.00,,,0.00,Wunderground v.1.15,2013-02-08 22:16:00,
2013-02-08 16:21:00,44.7,30.8,30.26,SSE,157,0.0,4.0,58,0.00,,,0.00,Wunderground v.1.15,2013-02-08 22:21:00,
2013-02-08 16:26:00,44.7,30.8,30.25,SE,132,6.0,6.0,58,0.00,,,0.00,Wunderground v.1.15,2013-02-08 22:26:00,
2013-02-08 16:31:00,44.7,30.8,30.25,SE,134,3.0,4.0,58,0.00,,,0.00,Wunderground v.1.15,2013-02-08 22:31:00,
2013-02-08 16:36:00,44.6,30.7,30.25,SSE,167,1.0,7.0,58,0.00,,,0.00,Wunderground v.1.15,2013-02-08 22:36:00,
2013-02-08 16:41:00,44.3,30.9,30.25,South,182,3.0,7.0,59,0.00,,,0.00,Wunderground v.1.15,2013-02-08 22:41:00,
2013-02-08 16:46:00,44.2,31.2,30.25,SE,137,5.0,7.0,60,0.00,,,0.00,Wunderground v.1.15,2013-02-08 22:46:00,
2013-02-08 16:51:00,44.1,31.1,30.25,SSE,165,1.0,5.0,60,0.00,,,0.00,Wunderground v.1.15,2013-02-08 22:51:00,
2013-02-08 16:56:00,43.8,31.2,30.25,ESE,102,2.0,6.0,61,0.00,,,0.00,Wunderground v.1.15,2013-02-08 22:56:00,
2013-02-08 17:01:00,43.6,31.4,30.25,SE,139,3.0,6.0,62,0.00,,,0.00,Wunderground v.1.15,2013-02-08 23:01:00,
2013-02-08 17:06:00,43.4,31.2,30.24,East,98,1.0,6.0,62,0.00,,,0.00,Wunderground v.1.15,2013-02-08 23:06:00,
2013-02-08 17:11:00,43.3,31.5,30.24,ESE,107,3.0,6.0,63,0.00,,,0.00,Wunderground v.1.15,2013-02-08 23:11:00,
2013-02-08 17:16:00,43.2,31.4,30.24,SSE,147,3.0,7.0,63,0.00,,,0.00,Wunderground v.1.15,2013-02-08 23:16:00,
2013-02-08 17:21:00,43.0,31.3,30.24,SSW,207,2.0,7.0,63,0.00,,,0.00,Wunderground v.1.15,2013-02-08 23:21:00,
2013-02-08 17:26:00,42.8,31.1,30.23,SSE,167,4.0,9.0,63,0.00,,,0.00,Wunderground v.1.15,2013-02-08 23:26:00,
2013-02-08 17:31:00,42.6,31.3,30.24,SSE,157,1.0,4.0,64,0.00,,,0.00,Wunderground v.1.15,2013-02-08 23:31:00,
2013-02-08 17:36:00,42.5,31.2,30.24,ESE,107,5.0,6.0,64,0.00,,,0.00,Wunderground v.1.15,2013-02-08 23:36:00,
2013-02-08 17:41:00,42.3,31.4,30.24,SE,126,2.0,10.0,65,0.00,,,0.00,Wunderground v.1.15,2013-02-08 23:41:00,
2013-02-08 17:46:00,42.2,31.3,30.24,SE,140,3.0,10.0,65,0.00,,,0.00,Wunderground v.1.15,2013-02-08 23:46:00,
2013-02-08 17:51:00,42.0,31.5,30.24,South,169,4.0,5.0,66,0.00,,,0.00,Wunderground v.1.15,2013-02-08 23:51:00,
2013-02-08 17:56:00,41.8,31.6,30.23,SSE,154,3.0,7.0,67,0.00,,,0.00,Wunderground v.1.15,2013-02-08 23:56:00,
2013-02-08 18:01:00,41.6,31.4,30.23,ESE,111,5.0,5.0,67,0.00,,,0.00,Wunderground v.1.15,2013-02-09 00:01:00,
2013-02-08 18:06:00,41.4,31.6,30.23,ESE,111,1.0,5.0,68,0.00,,,0.00,Wunderground v.1.15,2013-02-09 00:06:00,
2013-02-08 18:11:00,41.2,31.4,30.23,SE,130,2.0,5.0,68,0.00,,,0.00,Wunderground v.1.15,2013-02-09 00:11:00,
2013-02-08 18:16:00,41.0,31.6,30.23,SE,143,2.0,5.0,69,0.00,,,0.00,Wunderground v.1.15,2013-02-09 00:16:00,
2013-02-08 18:21:00,40.8,31.4,30.23,ESE,102,3.0,5.0,69,0.00,,,0.00,Wunderground v.1.15,2013-02-09 00:21:00,
2013-02-08 18:26:00,40.7,31.7,30.23,SSE,161,2.0,7.0,70,0.00,,,0.00,Wunderground v.1.15,2013-02-09 00:26:00,
2013-02-08 18:32:00,40.5,31.5,30.23,SE,126,3.0,6.0,70,0.00,,,0.00,Wunderground v.1.15,2013-02-09 00:32:00,
2013-02-08 18:37:00,40.4,31.7,30.23,SSE,164,3.0,6.0,71,0.00,,,0.00,Wunderground v.1.15,2013-02-09 00:37:00,
2013-02-08 18:42:00,40.2,31.5,30.23,SE,132,1.0,4.0,71,0.00,,,0.00,Wunderground v.1.15,2013-02-09 00:42:00,
2013-02-08 18:47:00,40.1,31.4,30.24,SE,141,2.0,4.0,71,0.00,,,0.00,Wunderground v.1.15,2013-02-09 00:47:00,
2013-02-08 18:52:00,40.0,31.7,30.24,South,170,1.0,2.0,72,0.00,,,0.00,Wunderground v.1.15,2013-02-09 00:52:00,
2013-02-08 18:57:00,39.8,31.5,30.24,SSE,166,1.0,2.0,72,0.00,,,0.00,Wunderground v.1.15,2013-02-09 00:57:00,
2013-02-08 19:02:00,39.6,31.7,30.24,SSE,155,1.0,3.0,73,0.00,,,0.00,Wunderground v.1.15,2013-02-09 01:02:00,
2013-02-08 19:07:00,39.5,31.6,30.24,SSE,155,2.0,3.0,73,0.00,,,0.00,Wunderground v.1.15,2013-02-09 01:07:00,
2013-02-08 19:12:00,39.3,31.4,30.24,SE,127,1.0,3.0,73,0.00,,,0.00,Wunderground v.1.15,2013-02-09 01:12:00,
2013-02-08 19:17:00,39.1,31.5,30.24,ESE,123,1.0,4.0,74,0.00,,,0.00,Wunderground v.1.15,2013-02-09 01:17:00,
2013-02-08 19:22:00,39.0,31.4,30.24,ESE,108,2.0,4.0,74,0.00,,,0.00,Wunderground v.1.15,2013-02-09 01:22:00,
2013-02-08 19:27:00,38.9,31.3,30.24,SE,124,2.0,5.0,74,0.00,,,0.00,Wunderground v.1.15,2013-02-09 01:27:00,
2013-02-08 19:32:00,38.8,31.2,30.24,ESE,121,2.0,4.0,74,0.00,,,0.00,Wunderground v.1.15,2013-02-09 01:32:00,
2013-02-08 19:37:00,38.7,31.1,30.24,ESE,105,1.0,4.0,74,0.00,,,0.00,Wunderground v.1.15,2013-02-09 01:37:00,
2013-02-08 19:42:00,38.6,31.4,30.24,SE,136,4.0,6.0,75,0.00,,,0.00,Wunderground v.1.15,2013-02-09 01:42:00,
2013-02-08 19:47:00,38.4,31.2,30.24,ESE,111,2.0,6.0,75,0.00,,,0.00,Wunderground v.1.15,2013-02-09 01:47:00,
2013-02-08 19:52:00,38.3,31.1,30.23,SE,124,0.0,5.0,75,0.00,,,0.00,Wunderground v.1.15,2013-02-09 01:52:00,
2013-02-08 19:57:00,38.0,31.1,30.23,ESE,105,2.0,6.0,76,0.00,,,0.00,Wunderground v.1.15,2013-02-09 01:57:00,
2013-02-08 20:02:00,37.9,31.0,30.23,ESE,119,2.0,8.0,76,0.00,,,0.00,Wunderground v.1.15,2013-02-09 02:02:00,
2013-02-08 20:07:00,37.7,31.1,30.23,East,86,2.0,8.0,77,0.00,,,0.00,Wunderground v.1.15,2013-02-09 02:07:00,
2013-02-08 20:12:00,37.5,30.9,30.22,SE,143,2.0,4.0,77,0.00,,,0.00,Wunderground v.1.15,2013-02-09 02:12:00,
2013-02-08 20:17:00,37.4,31.2,30.23,South,185,3.0,7.0,78,0.00,,,0.00,Wunderground v.1.15,2013-02-09 02:17:00,
2013-02-08 20:22:00,37.3,31.1,30.23,SSW,201,5.0,9.0,78,0.00,,,0.00,Wunderground v.1.15,2013-02-09 02:22:00,
2013-02-08 20:27:00,37.1,30.9,30.23,SSE,167,2.0,9.0,78,0.00,,,0.00,Wunderground v.1.15,2013-02-09 02:27:00,
2013-02-08 20:32:00,36.9,30.7,30.23,SE,137,4.0,6.0,78,0.00,,,0.00,Wunderground v.1.15,2013-02-09 02:32:00,
2013-02-08 20:37:00,36.7,30.8,30.23,SSE,153,3.0,7.0,79,0.00,,,0.00,Wunderground v.1.15,2013-02-09 02:37:00,
2013-02-08 20:42:00,36.5,30.6,30.22,ESE,123,3.0,9.0,79,0.00,,,0.00,Wunderground v.1.15,2013-02-09 02:42:00,
2013-02-08 20:47:00,36.4,30.8,30.22,ESE,119,2.0,9.0,80,0.00,,,0.00,Wunderground v.1.15,2013-02-09 02:47:00,
2013-02-08 20:52:00,36.2,30.6,30.22,SSE,161,5.0,10.0,80,0.00,,,0.00,Wunderground v.1.15,2013-02-09 02:52:00,
2013-02-08 20:57:00,36.0,30.4,30.22,ESE,105,4.0,10.0,80,0.00,,,0.00,Wunderground v.1.15,2013-02-09 02:57:00,
2013-02-08 21:02:00,35.8,30.5,30.22,SE,143,2.0,5.0,81,0.00,,,0.00,Wunderground v.1.15,2013-02-09 03:02:00,
2013-02-08 21:07:00,35.7,30.4,30.23,ESE,117,3.0,8.0,81,0.00,,,0.00,Wunderground v.1.15,2013-02-09 03:07:00,
2013-02-08 21:12:00,35.5,30.2,30.23,ESE,108,7.0,8.0,81,0.00,,,0.00,Wunderground v.1.15,2013-02-09 03:12:00,
2013-02-08 21:17:00,35.3,30.4,30.23,South,177,3.0,9.0,82,0.00,,,0.00,Wunderground v.1.15,2013-02-09 03:17:00,
2013-02-08 21:22:00,35.2,30.3,30.23,ESE,121,2.0,6.0,82,0.00,,,0.00,Wunderground v.1.15,2013-02-09 03:22:00,
2013-02-08 21:27:00,35.0,30.1,30.22,SE,125,2.0,9.0,82,0.00,,,0.00,Wunderground v.1.15,2013-02-09 03:27:00,
2013-02-08 21:32:00,34.8,30.2,30.22,SSE,167,6.0,8.0,83,0.00,,,0.00,Wunderground v.1.15,2013-02-09 03:32:00,
2013-02-08 21:37:00,34.7,30.1,30.22,NE,55,2.0,8.0,83,0.00,,,0.00,Wunderground v.1.15,2013-02-09 03:37:00,
2013-02-08 21:42:00,34.6,30.0,30.22,SSE,163,3.0,9.0,83,0.00,,,0.00,Wunderground v.1.15,2013-02-09 03:42:00,
2013-02-08 21:47:00,34.4,29.8,30.22,South,191,4.0,11.0,83,0.00,,,0.00,Wunderground v.1.15,2013-02-09 03:47:00,
2013-02-08 21:52:00,34.3,30.0,30.22,ESE,107,1.0,9.0,84,0.00,,,0.00,Wunderground v.1.15,2013-02-09 03:52:00,
2013-02-08 21:57:00,34.2,29.6,30.22,SSE,162,4.0,9.0,83,0.00,,,0.00,Wunderground v.1.15,2013-02-09 03:57:00,
2013-02-08 22:02:00,34.1,29.8,30.22,SE,126,3.0,7.0,84,0.00,,,0.00,Wunderground v.1.15,2013-02-09 04:02:00,
2013-02-08 22:07:00,34.0,29.7,30.22,SE,132,1.0,7.0,84,0.00,,,0.00,Wunderground v.1.15,2013-02-09 04:07:00,
2013-02-08 22:12:00,33.8,29.5,30.22,SE,138,2.0,8.0,84,0.00,,,0.00,Wunderground v.1.15,2013-02-09 04:12:00,
2013-02-08 22:17:00,33.7,29.4,30.22,East,97,7.0,8.0,84,0.00,,,0.00,Wunderground v.1.15,2013-02-09 04:17:00,
2013-02-08 22:22:00,33.6,29.3,30.22,East,86,5.0,6.0,84,0.00,,,0.00,Wunderground v.1.15,2013-02-09 04:22:00,
2013-02-08 22:27:00,33.4,29.4,30.22,SE,140,5.0,12.0,85,0.00,,,0.00,Wunderground v.1.15,2013-02-09 04:27:00,
2013-02-08 22:33:00,33.3,29.3,30.22,ESE,105,3.0,8.0,85,0.00,,,0.00,Wunderground v.1.15,2013-02-09 04:33:00,
2013-02-08 22:38:00,33.2,29.2,30.22,ESE,110,3.0,8.0,85,0.00,,,0.00,Wunderground v.1.15,2013-02-09 04:38:00,
2013-02-08 22:43:00,33.0,29.0,30.21,East,80,6.0,8.0,85,0.00,,,0.00,Wunderground v.1.15,2013-02-09 04:43:00,
2013-02-08 22:48:00,32.9,29.2,30.21,SE,128,6.0,8.0,86,0.00,,,0.00,Wunderground v.1.15,2013-02-09 04:48:00,
2013-02-08 22:53:00,32.8,29.1,30.21,ESE,121,4.0,6.0,86,0.00,,,0.00,Wunderground v.1.15,2013-02-09 04:53:00,
2013-02-08 22:58:00,32.7,29.0,30.21,SSE,158,3.0,8.0,86,0.00,,,0.00,Wunderground v.1.15,2013-02-09 04:58:00,
2013-02-08 23:00:00,32.6,28.9,30.20,SE,128,2.0,4.0,86,0.00,,,0.00,Wunderground v.1.15,2013-02-09 05:00:00,
2013-02-08 23:01:00,32.6,28.9,30.20,East,86,1.0,5.0,86,0.00,,,0.00,Wunderground v.1.15,2013-02-09 05:01:00,
2013-02-08 23:06:00,32.5,28.8,30.21,ESE,106,3.0,7.0,86,0.00,,,0.00,Wunderground v.1.15,2013-02-09 05:06:00,
2013-02-08 23:11:00,32.4,28.7,30.20,East,86,1.0,4.0,86,0.00,,,0.00,Wunderground v.1.15,2013-02-09 05:11:00,
2013-02-08 23:16:00,32.3,28.9,30.20,SE,144,4.0,7.0,87,0.00,,,0.00,Wunderground v.1.15,2013-02-09 05:16:00,
2013-02-08 23:21:00,32.2,28.8,30.20,SSE,165,3.0,8.0,87,0.00,,,0.00,Wunderground v.1.15,2013-02-09 05:21:00,
2013-02-08 23:26:00,32.2,28.8,30.20,SSE,157,4.0,10.0,87,0.00,,,0.00,Wunderground v.1.15,2013-02-09 05:26:00,
2013-02-08 23:31:00,32.2,28.8,30.20,SSE,159,6.0,7.0,87,0.00,,,0.00,Wunderground v.1.15,2013-02-09 05:31:00,
2013-02-08 23:36:00,32.1,28.7,30.20,SSE,155,5.0,9.0,87,0.00,,,0.00,Wunderground v.1.15,2013-02-09 05:36:00,
2013-02-08 23:41:00,32.1,28.7,30.21,ESE,113,3.0,8.0,87,0.00,,,0.00,Wunderground v.1.15,2013-02-09 05:41:00,
2013-02-08 23:46:00,32.1,28.7,30.21,SSE,161,3.0,8.0,87,0.00,,,0.00,Wunderground v.1.15,2013-02-09 05:46:00,
2013-02-08 23:51:00,32.0,28.3,30.21,SSE,158,3.0,6.0,86,0.00,,,0.00,Wunderground v.1.15,2013-02-09 05:51:00,
2013-02-08 23:56:00,32.0,28.3,30.22,SE,135,1.0,8.0,86,0.00,,,0.00,Wunderground v.1.15,2013-02-09 05:56:00,